Regional Weather Roundup
Issued by NWS

Home | Current Version | Previous Version | Graphics & Text | Print | Product List | Glossary On
Versions: 1 2 3 4 5 6 7 8 9 10 11 12 13 14 15 16 17 18 19 20 21 22 23 24 25 26 27 28 29 30 31 32 33 34 35 36 37 38 39 40 41 42 43 44 45 46 47 48 49 50
737
ASUS43 KIND 180259
RWRIN

WEATHER ROUNDUP FOR INDIANA
NATIONAL WEATHER SERVICE INDIANAPOLIS IN
1000 PM EST SUN DEC 17 2017

NOTE: "FAIR" INDICATES FEW OR NO CLOUDS BELOW 12,000 FEET WITH NO
SIGNIFICANT WEATHER AND/OR OBSTRUCTIONS TO VISIBILITY.

* - STATION DOES NOT REPORT WEATHER SUCH AS PRECIPITATION OR FOG.

+ - STATION NOT QUALITY CONTROLLED BY THE NATIONAL WEATHER SERVICE.
    USE DATA WITH CAUTION...ESPECIALLY DEWPOINT AND RELATIVE
    HUMIDITY OBSERVATIONS.

INZ001>003-010>013-019-020-180400-
NORTHWEST INDIANA

CITY           SKY/WX    TMP DP  RH WIND       PRES   REMARKS
GARY /AIRPORT/ CLOUDY    45  36  70 SW5       30.02S
KNOX *+        CLOUDY    41  36  81 SW12      30.03R
MONTICELLO +   CLOUDY    40  38  90 S7        30.05S WCI  36

$$

LMZ046-743>745-180400-
SOUTHERN LAKE MICHIGAN

STATION/POSITION TIME  TEMP    WIND        PRES    WAVE
                       AIR SEA DIR/SP/G            HT
                 (UTC) (F)     (DEG/KT/KT) (MB)    (FT)
BURNS HARBOR     0240   43     190/ 11/ 14 1016.6S
MICHIGAN CITY    0230   43     190/ 14/ 17   N/A

$$

INZ004-005-014>016-021>024-180400-
NORTH CENTRAL INDIANA

CITY           SKY/WX    TMP DP  RH WIND       PRES   REMARKS
GOSHEN         CLOUDY    39  35  86 S7        30.03S WCI  34
PERU/GRISSOM   CLOUDY    39  39 100 S7        30.06R WCI  34
SOUTH BEND     CLOUDY    38  35  89 SW8       30.02S WCI  32
WARSAW +       CLOUDY    39  36  87 S3        30.04S

$$

INZ006>009-017-018-025>027-180400-
NORTHEAST INDIANA

CITY           SKY/WX    TMP DP  RH WIND       PRES   REMARKS
FORT WAYNE     CLOUDY    38  37  97 SW8       30.07S WCI  32
KENDALLVILLE + CLOUDY    38  36  91 SW9       30.03F WCI  32

$$

INZ028-029-035-036-043>045-051>053-180400-
WEST CENTRAL INDIANA

CITY           SKY/WX    TMP DP  RH WIND       PRES   REMARKS
LAFAYETTE      CLOUDY    40  38  93 SW6       30.07S WCI  36
TERRE HAUTE    CLOUDY    43  38  82 S8        30.10S

$$

INZ030>032-037>040-046>048-054>057-064-065-180400-
CENTRAL INDIANA

CITY           SKY/WX    TMP DP  RH WIND       PRES   REMARKS
COLUMBUS       CLOUDY    41  34  75 S9        30.12S
INDIANAPOLIS   CLOUDY    37  34  89 S7        30.09F WCI  32
-EAGLE CREEK   CLOUDY    40  35  83 S3        30.08S
KOKOMO +       CLOUDY    38  37  97 S6        30.07F WCI  33
MT COMFORT *+  PTCLDY    37  36  93 S7        30.09S WCI  32
SHELBYVILLE    MOCLDY    38  32  79 S9        30.09F WCI  31

$$

INZ033-034-041-042-049-050-058-059-180400-
EAST CENTRAL INDIANA

CITY           SKY/WX    TMP DP  RH WIND       PRES   REMARKS
MUNCIE         CLOUDY    42  34  73 S7        30.07F
RICHMOND +     CLOUDY    36  34  93 S8        30.10S WCI  29

$$

INZ060-061-067>069-081>083-085>088-180400-
SOUTHWEST INDIANA

CITY           SKY/WX    TMP DP  RH WIND       PRES   REMARKS
EVANSVILLE     LGT RAIN  43  43 100 S5        30.14S
HUNTINGBURG +  CLOUDY    41  41 100 S6        30.14S FOG

$$

INZ062-063-066-070>080-084-089>092-180400-
SOUTH CENTRAL AND SOUTHEAST INDIANA

CITY           SKY/WX    TMP DP  RH WIND       PRES   REMARKS
BLOOMINGTON    CLOUDY    43  36  76 S8        30.10S
SEYMOUR +      CLOUDY    45  36  70 S7        30.12F

$$





USA.gov is the U.S. government's official web portal to all federal, state and local government web resources and services.